Weather History for KCAK - March, 2014

Change the Weather History Date:

Friday, March 14, 2014

  Actual Average Record
Temperature  
Mean Temperature 43 °F 37 °F  
Max Temperature 58 °F 46 °F 77 °F (1990)
Min Temperature 28 °F 28 °F 7 °F (1895)
Degree Days  
Heating Degree Days 22 28  
Month to date heating degree days 497 427  
Since 1 July heating degree days 5320 4971  
Cooling Degree Days 0 0  
Month to date cooling degree days 0 0  
Year to date cooling degree days 0 0  
Moisture  
Dew Point 24 °F    
Average Humidity 56    
Maximum Humidity 76    
Minimum Humidity 35    
Precipitation  
Precipitation 0.04 in 0.10 in 1.46 in (1973)
Month to date precipitation 0.74 1.24  
Year to date precipitation 4.25 6.16  
Snow  
Snow 0.00 in 0.20 in - ()
Month to date snowfall 5.2 4.5  
Since 1 July snowfall 64.5 41.0  
Snow Depth 0.00 in    
Sea Level Pressure  
Sea Level Pressure 29.88 in    
Wind  
Wind Speed 19 mph (SW)    
Max Wind Speed 35 mph    
Max Gust Speed 35 mph    
Visibility 10 miles    
Events Rain    
T = Trace of Precipitation, MM = Missing Value Source: NWS Daily Summary

Daily Weather History Graph

Daily Weather History Graph

Search for Another Location

Airport or City:

Trip Planner

Search our weather history database for the weather conditions in past years. The results will help you decide how hot, cold, wet, or windy it might be!

Date:

Astronomy

Mar. 14, 2014 Rise Set
Actual Time 7:39 AM EDT 7:31 PM EDT
Civil Twilight 7:11 AM EDT 7:58 PM EDT
Nautical Twilight 6:39 AM EDT 8:30 PM EDT
Astronomical Twilight 6:07 AM EDT 9:03 PM EDT
Moon 5:51 PM EDT (3/14) 6:18 AM EDT (3/14)
Length of Visible Light 12h 47m
Length of Day
11h 52m
Waxing Gibbous, 96% of the Moon is Illuminated
Mar 14
Waxing Gibbous
Mar 16
Full
Mar 23
Last Quarter
Mar 30
New
Apr 7
First Quarter

Hourly Weather History & Observations

Time (EDT) Temp. Windchill Dew Point Humidity Pressure Visibility Wind Dir Wind Speed Gust Speed Precip Events Conditions
12:51 AM 28.0 °F 17.5 °F 14.0 °F 56% 30.08 in 10.0 mi SSW 12.7 mph - N/A   Overcast
1:51 AM 30.0 °F 21.1 °F 16.0 °F 56% 30.07 in 10.0 mi SSW 10.4 mph - N/A   Overcast
2:51 AM 30.0 °F 21.1 °F 16.0 °F 56% 30.06 in 10.0 mi SSW 10.4 mph - N/A   Partly Cloudy
3:51 AM 30.0 °F 21.7 °F 16.0 °F 56% 30.04 in 10.0 mi SSW 9.2 mph - N/A   Overcast
4:51 AM 30.0 °F 21.7 °F 13.1 °F 49% 30.03 in 10.0 mi SSW 9.2 mph - N/A   Overcast
5:51 AM 32.0 °F 23.0 °F 17.1 °F 54% 30.01 in 10.0 mi SSW 11.5 mph - N/A   Overcast
6:51 AM 32.0 °F 22.5 °F 18.0 °F 56% 30.00 in 10.0 mi SSW 12.7 mph - N/A   Scattered Clouds
7:51 AM 32.0 °F 21.6 °F 18.0 °F 56% 29.99 in 10.0 mi SSW 15.0 mph - N/A   Clear
8:51 AM 34.0 °F 25.0 °F 19.9 °F 56% 29.98 in 10.0 mi SSW 12.7 mph - N/A   Clear
9:51 AM 37.0 °F 27.7 °F 19.9 °F 50% 29.96 in 10.0 mi SSW 16.1 mph - N/A   Partly Cloudy
10:51 AM 39.9 °F 30.2 °F 22.1 °F 49% 29.94 in 10.0 mi SSW 20.7 mph - N/A   Scattered Clouds
11:51 AM 46.0 °F 37.6 °F 24.1 °F 42% 29.91 in 10.0 mi SW 24.2 mph - N/A   Mostly Cloudy
12:51 PM 48.0 °F - 24.1 °F 39% 29.88 in 10.0 mi SW 24.2 mph - N/A   Mostly Cloudy
1:51 PM 52.0 °F - 24.1 °F 34% 29.84 in 10.0 mi WSW 21.9 mph - N/A   Mostly Cloudy
2:51 PM 55.9 °F - 28.0 °F 34% 29.78 in 10.0 mi SW 27.6 mph - N/A   Mostly Cloudy
3:51 PM 56.8 °F - 31.6 °F 38% 29.72 in 10.0 mi SSW 32.2 mph - N/A   Scattered Clouds
4:51 PM 57.6 °F - 31.3 °F 37% 29.71 in 10.0 mi SW 34.5 mph - N/A   Mostly Cloudy
5:51 PM 57.4 °F - 31.3 °F 37% 29.69 in 10.0 mi SW 28.8 mph - N/A   Mostly Cloudy
6:51 PM 56.1 °F - 32.2 °F 40% 29.70 in 10.0 mi SW 28.8 mph - N/A   Mostly Cloudy
7:51 PM 54.1 °F - 30.7 °F 41% 29.72 in 10.0 mi SW 20.7 mph - N/A   Overcast
8:51 PM 54.5 °F - 28.6 °F 37% 29.72 in 10.0 mi SW 20.7 mph - N/A   Overcast
9:51 PM 53.8 °F - 29.3 °F 39% 29.72 in 10.0 mi SW 20.7 mph - 0.00 in Rain Light Rain
10:51 PM 50.7 °F - 35.1 °F 55% 29.72 in 10.0 mi SW 17.3 mph - 0.01 in Rain Light Rain
11:51 PM 46.9 °F - 39.9 °F 77% 29.76 in 10.0 mi West 20.7 mph - 0.02 in Rain Light Rain